Weather History for Orlando International, FL

Change the Weather History Date:

Monday, March 19, 2012

  Actual Average Record
Temperature  
Mean Temperature 72 °F 67 °F  
Max Temperature 84 °F 78 °F 93 °F (1921)
Min Temperature 59 °F 56 °F 34 °F (1892)
Degree Days  
Heating Degree Days 0 2  
Month to date heating degree days 8 46  
Since 1 July heating degree days 309 545  
Cooling Degree Days 7 4  
Month to date cooling degree days 121 67  
Year to date cooling degree days 262 171  
Growing Degree Days 21 (Base 50)    
Moisture  
Dew Point 59 °F    
Average Humidity 71    
Maximum Humidity 100    
Minimum Humidity 42    
Precipitation  
Precipitation 0.00 in 0.13 in 2.17 in (1998)
Month to date precipitation 0.61 2.20  
Year to date precipitation 3.88 6.93  
Sea Level Pressure  
Sea Level Pressure 30.16 in    
Wind  
Wind Speed 6 mph (ESE)    
Max Wind Speed 16 mph    
Max Gust Speed 22 mph    
Visibility 10 miles    
Events Fog    
T = Trace of Precipitation, MM = Missing Value Source: NWS Daily Summary

Daily Weather History Graph

Daily Weather History Graph

Search for Another Location

Airport:

Trip Planner

Search our weather history database for the weather conditions in past years. The results will help you decide how hot, cold, wet, or windy it might be!

Date:

Astronomy

Mar. 19, 2012 Rise Set
Actual Time 7:29 AM EDT 7:36 PM EDT
Civil Twilight 7:06 AM EDT 7:59 PM EDT
Nautical Twilight 6:38 AM EDT 8:27 PM EDT
Astronomical Twilight 6:11 AM EDT 8:54 PM EDT
Moon 5:29 AM EDT (3/19) 5:12 PM EDT (3/19)
Length of Visible Light 12h 53m
Length of Day
12h 06m
Waning Crescent, 8% of the Moon is Illuminated
Mar 19
Waning Crescent
Mar 22
New
Mar 30
First Quarter
Apr 6
Full
Apr 13
Last Quarter

Hourly Weather History & Observations

Time (EDT) Temp. Heat Index Dew Point Humidity Pressure Visibility Wind Dir Wind Speed Gust Speed Precip Events Conditions
12:53 AM 64.9 °F - 60.1 °F 84% 30.19 in 10.0 mi East 3.5 mph - N/A   Clear
1:53 AM 64.0 °F - 60.1 °F 87% 30.19 in 10.0 mi Calm Calm - N/A   Clear
2:53 AM 62.1 °F - 59.0 °F 90% 30.18 in 10.0 mi Calm Calm - N/A   Clear
3:53 AM 61.0 °F - 59.0 °F 93% 30.17 in 10.0 mi Calm Calm - N/A   Clear
4:53 AM 61.0 °F - 59.0 °F 93% 30.17 in 10.0 mi Calm Calm - N/A   Clear
5:53 AM 61.0 °F - 59.0 °F 93% 30.17 in 7.0 mi East 3.5 mph - N/A Fog Patches of Fog
6:53 AM 60.1 °F - 57.9 °F 93% 30.18 in 8.0 mi Calm Calm - N/A Fog Patches of Fog
7:53 AM 60.8 °F - 60.8 °F 100% 30.19 in 10.0 mi Calm Calm - N/A Fog Patches of Fog
8:53 AM 68.0 °F - 63.0 °F 84% 30.21 in 10.0 mi Calm Calm - N/A   Partly Cloudy
9:53 AM 73.0 °F - 61.0 °F 66% 30.21 in 10.0 mi ESE 5.8 mph - N/A   Partly Cloudy
10:53 AM 75.9 °F - 60.1 °F 58% 30.21 in 10.0 mi ESE 11.5 mph - N/A   Scattered Clouds
11:53 AM 78.1 °F - 60.1 °F 54% 30.21 in 10.0 mi East 8.1 mph - N/A   Scattered Clouds
12:53 PM 80.1 °F 80.7 °F 59.0 °F 48% 30.19 in 10.0 mi East 4.6 mph - N/A   Scattered Clouds
1:53 PM 82.9 °F 82.6 °F 57.9 °F 42% 30.15 in 10.0 mi ESE 10.4 mph 18.4 mph N/A   Scattered Clouds
2:53 PM 82.0 °F 82.0 °F 57.9 °F 44% 30.12 in 10.0 mi ESE 11.5 mph 17.3 mph N/A   Scattered Clouds
3:53 PM 82.9 °F 82.4 °F 57.0 °F 41% 30.11 in 10.0 mi East 12.7 mph - N/A   Scattered Clouds
4:53 PM 81.0 °F 80.8 °F 55.9 °F 42% 30.10 in 10.0 mi ESE 13.8 mph 19.6 mph N/A   Partly Cloudy
5:53 PM 80.1 °F 80.2 °F 55.9 °F 43% 30.11 in 10.0 mi ESE 12.7 mph - N/A   Scattered Clouds
6:53 PM 77.0 °F - 57.9 °F 52% 30.11 in 10.0 mi ESE 11.5 mph - N/A   Partly Cloudy
7:53 PM 73.0 °F - 59.0 °F 61% 30.13 in 10.0 mi East 12.7 mph - N/A   Partly Cloudy
8:53 PM 70.0 °F - 60.1 °F 71% 30.14 in 10.0 mi East 6.9 mph - N/A   Clear
9:53 PM 68.0 °F - 60.1 °F 76% 30.15 in 10.0 mi East 5.8 mph - N/A   Partly Cloudy
10:53 PM 66.0 °F - 59.0 °F 78% 30.16 in 10.0 mi East 5.8 mph - N/A   Partly Cloudy
11:53 PM 64.0 °F - 59.0 °F 84% 30.15 in 10.0 mi SE 4.6 mph - N/A   Partly Cloudy